This is the latest recevied weather packets stored in our database for station/object SQ6PCH-10. If no packets are shown the sender has not sent any weather packets the latest 10 day(s).
| Time | Temp. | Humidity | Pressure | Rain* | Wind** | Luminosity | Snow |
|---|---|---|---|---|---|---|---|
| 1777724876 | 32.78° C | 10% | 1007.8 hPa | - | - | - | - |
| 1777724276 | 31.67° C | 12% | 1007.9 hPa | - | - | - | - |
| 1777722475 | 32.22° C | 12% | 1008.3 hPa | - | - | - | - |
| 1777721875 | 31.67° C | 11% | 1008.4 hPa | - | - | - | - |
| 1777721275 | 29.44° C | 13% | 1008.5 hPa | - | - | - | - |
| 1777720675 | 32.78° C | 12% | 1008.6 hPa | - | - | - | - |
| 1777720074 | 30.56° C | 13% | 1008.7 hPa | - | - | - | - |
| 1777719474 | 31.67° C | 12% | 1009 hPa | - | - | - | - |
| 1777718874 | 31.11° C | 13% | 1009.1 hPa | - | - | - | - |
| 1777718274 | 32.22° C | 12% | 1009.2 hPa | - | - | - | - |
| 1777717674 | 31.11° C | 13% | 1009.3 hPa | - | - | - | - |
| 1777717073 | 28.89° C | 15% | 1009.4 hPa | - | - | - | - |
| 1777716472 | 30.56° C | 13% | 1009.5 hPa | - | - | - | - |
| 1777715872 | 31.11° C | 13% | 1009.6 hPa | - | - | - | - |
| 1777715272 | 30.56° C | 15% | 1009.8 hPa | - | - | - | - |
| 1777714671 | 28.33° C | 16% | 1009.8 hPa | - | - | - | - |
| 1777714071 | 28.33° C | 16% | 1010 hPa | - | - | - | - |
| 1777713471 | 27.78° C | 17% | 1010.1 hPa | - | - | - | - |
| 1777712871 | 27.78° C | 17% | 1010.1 hPa | - | - | - | - |
| 1777712271 | 26.67° C | 19% | 1010.2 hPa | - | - | - | - |
| 1777711671 | 25.56° C | 21% | 1010.2 hPa | - | - | - | - |
| 1777711070 | 25.56° C | 23% | 1010.2 hPa | - | - | - | - |
| 1777710470 | 25.56° C | 24% | 1010.3 hPa | - | - | - | - |
| 1777709870 | 24.44° C | 26% | 1010.3 hPa | - | - | - | - |
| 1777709270 | 23.89° C | 26% | 1010.5 hPa | - | - | - | - |
* Rain since midnight (hover to see other rain measurements)
** Current wind speed in m/s (hover to see current wind gust speed)